GW4236 Weather Reports


Display with metric or nautical units.
time (UTC)temp
F
wind
direction
speed
MPH
gust
MPH
rain 1hr
in
rain 24hr
in
rain mn
in
humidity
%
barometer
mb
20260509101355 70 195 0.0 4.0 0.00 0.00 0.00 97 1010.0
20260509100853 70 294 3.0 4.0 0.00 0.00 0.00 96 1009.9
20260509100350 70 202 1.0 3.0 0.00 0.00 0.00 96 1009.3
20260509095846 70 213 1.0 4.0 0.00 0.00 0.00 96 1008.8
20260509095344 69 193 4.0 7.0 0.00 0.00 0.00 96 1008.6
20260509094841 69 182 5.0 8.0 0.00 0.00 0.00 96 1008.8
20260509094337 69 179 3.0 6.0 0.00 0.00 0.00 96 1008.6
20260509093835 69 196 4.0 10.0 0.00 0.00 0.00 96 1008.8
20260509093332 69 199 2.0 7.0 0.00 0.00 0.00 96 1008.6
20260509092831 69 203 7.0 11.0 0.00 0.00 0.00 97 1008.4
20260509092328 69 212 3.0 10.0 0.00 0.00 0.00 97 1008.5
20260509091826 69 205 4.0 6.0 0.00 0.00 0.00 96 1008.6
20260509091323 69 208 2.0 10.0 0.00 0.00 0.00 96 1008.7
20260509090820 69 202 5.0 7.0 0.00 0.00 0.00 96 1008.8
20260509090317 69 143 4.0 8.0 0.00 0.00 0.00 96 1009.2
20260509085814 69 207 3.0 7.0 0.00 0.00 0.00 95 1009.4
20260509085312 69 223 2.0 3.0 0.00 0.00 0.00 95 1009.9
20260509084808 69 198 3.0 7.0 0.00 0.00 0.00 95 1009.9
20260509084305 69 199 4.0 4.0 0.00 0.00 0.00 95 1010.0
20260509083803 69 174 2.0 4.0 0.00 0.00 0.00 95 1010.3
20260509083259 69 218 2.0 4.0 0.00 0.00 0.00 94 1010.3
20260509082756 69 185 2.0 6.0 0.00 0.00 0.00 94 1010.5
20260509082252 69 192 1.0 3.0 0.00 0.00 0.00 94 1010.9
20260509081749 69 211 2.0 2.0 0.00 0.00 0.00 94 1011.4
20260509081247 69 193 0.0 1.0 0.00 0.00 0.00 94 1011.4
20260509080745 69 191 0.0 2.0 0.00 0.00 0.00 94 1011.6
20260509080242 69 188 1.0 2.0 0.00 0.00 0.00 94 1011.6
20260509075740 69 189 0.0 0.0 0.00 0.00 0.00 94 1011.8
20260509075238 69 193 0.0 0.0 0.00 0.00 0.00 94 1011.7
20260509074734 69 191 0.0 0.0 0.00 0.00 0.00 94 1011.9
20260509074232 69 192 0.0 1.0 0.00 0.00 0.00 94 1011.9
20260509073728 69 192 0.0 0.0 0.00 0.00 0.00 94 1011.8
20260509073224 69 192 0.0 0.0 0.00 0.00 0.00 94 1011.9
20260509072721 69 197 1.0 1.0 0.00 0.00 0.00 94 1012.1
20260509072218 69 191 0.0 2.0 0.00 0.00 0.00 94 1011.8
20260509071715 69 189 0.0 1.0 0.00 0.00 0.00 93 1011.4
20260509071212 69 191 1.0 3.0 0.00 0.00 0.00 93 1011.5
20260509070709 69 193 0.0 1.0 0.00 0.00 0.00 92 1011.5
20260509070205 69 195 0.0 1.0 0.00 0.00 0.00 92 1011.5
20260509065701 69 201 1.0 2.0 0.00 0.00 0.00 92 1011.3
20260509065158 69 200 2.0 2.0 0.00 0.00 0.00 91 1011.5
20260509064654 70 192 1.0 3.0 0.00 0.00 0.00 91 1011.3
20260509064152 69 184 2.0 2.0 0.00 0.00 0.00 91 1011.1
20260509063649 69 185 1.0 1.0 0.00 0.00 0.00 91 1011.5
20260509063145 69 185 0.0 0.0 0.00 0.00 0.00 91 1011.5
20260509062643 69 190 0.0 0.0 0.00 0.00 0.00 90 1011.5
20260509062140 70 192 0.0 0.0 0.00 0.00 0.00 90 1011.9
20260509061636 70 191 0.0 0.0 0.00 0.00 0.00 89 1011.8
20260509061134 70 195 0.0 4.0 0.00 0.00 0.00 89 1011.3
20260509060632 71 192 1.0 2.0 0.00 0.00 0.00 88 1011.6
20260509060127 71 195 0.0 0.0 0.00 0.00 0.00 87 1012.2
20260509055623 71 190 0.0 0.0 0.00 0.02 0.02 87 1011.9
20260509055119 71 189 1.0 1.0 0.00 0.02 0.02 87 1012.0
20260509054616 71 193 0.0 0.0 0.00 0.02 0.02 87 1012.6
20260509054114 71 228 1.0 1.0 0.00 0.02 0.02 87 1012.6
20260509053612 71 189 0.0 0.0 0.00 0.02 0.02 86 1012.0
20260509053109 71 195 2.0 4.0 0.00 0.02 0.02 86 1011.7
20260509052607 71 188 1.0 2.0 0.00 0.02 0.02 86 1011.7
20260509052104 71 189 0.0 1.0 0.00 0.02 0.02 86 1011.6
20260509051602 72 183 2.0 3.0 0.00 0.02 0.02 85 1011.4
20260509051053 72 206 2.0 3.0 0.00 0.02 0.02 84 1011.5
20260509050550 72 192 1.0 4.0 0.00 0.02 0.02 84 1011.2
20260509050046 72 207 2.0 7.0 0.00 0.02 0.02 85 1011.0
20260509045544 72 199 4.0 6.0 0.00 0.02 0.02 84 1011.1
20260509045041 72 158 2.0 3.0 0.00 0.02 0.02 84 1011.5
20260509044538 72 193 0.0 0.0 0.00 0.02 0.02 84 1011.6
20260509044035 73 189 0.0 0.0 0.00 0.02 0.02 84 1011.6
20260509043532 73 185 1.0 1.0 0.00 0.02 0.02 84 1011.7
20260509043027 72 197 0.0 0.0 0.00 0.02 0.02 84 1011.9
20260509042524 72 195 0.0 0.0 0.00 0.02 0.02 84 1011.9
20260509042021 72 192 0.0 0.0 0.00 0.02 0.02 85 1011.9
20260509041517 72 188 1.0 2.0 0.00 0.02 0.02 84 1011.9
20260509041015 72 192 1.0 2.0 0.00 0.02 0.02 84 1011.7
20260509040513 72 190 0.0 2.0 0.00 0.02 0.02 84 1011.8
20260509040010 73 194 0.0 2.0 0.00 0.02 0.02 84 1011.9
20260509035507 73 191 0.0 1.0 0.00 0.02 0.02 84 1011.9
20260509035003 73 190 0.0 1.0 0.00 0.02 0.02 84 1011.6
20260509034501 73 195 0.0 2.0 0.00 0.02 0.02 84 1011.5
20260509033957 73 192 1.0 2.0 0.00 0.02 0.02 83 1011.5
20260509033454 73 187 0.0 2.0 0.00 0.02 0.02 83 1011.5
20260509032951 73 190 1.0 1.0 0.00 0.02 0.02 83 1011.2
20260509032448 73 186 0.0 1.0 0.00 0.02 0.02 83 1011.3
20260509031946 73 191 1.0 1.0 0.00 0.02 0.02 83 1011.2
20260509031443 73 181 0.0 2.0 0.00 0.02 0.02 82 1011.3
20260509030940 73 184 0.0 3.0 0.00 0.02 0.02 82 1011.3
20260509030438 73 197 1.0 3.0 0.00 0.02 0.02 81 1011.2
20260509025935 73 176 2.0 4.0 0.00 0.02 0.02 81 1011.1
20260509025431 73 198 1.0 3.0 0.00 0.02 0.02 81 1011.0
20260509024926 73 198 1.0 2.0 0.00 0.02 0.02 81 1010.8
20260509024422 73 193 1.0 3.0 0.00 0.02 0.02 81 1010.8
20260509023919 72 203 2.0 4.0 0.00 0.02 0.02 81 1010.5
20260509023417 72 168 2.0 4.0 0.00 0.02 0.02 80 1010.5
20260509022913 73 187 2.0 3.0 0.00 0.02 0.02 80 1010.7
20260509022410 73 194 2.0 2.0 0.00 0.02 0.02 80 1010.7
20260509021908 73 200 1.0 3.0 0.00 0.02 0.02 80 1010.6
20260509021404 73 205 0.0 1.0 0.00 0.02 0.02 79 1010.5
20260509020902 73 192 0.0 2.0 0.00 0.02 0.02 79 1010.7
20260509020400 73 194 0.0 2.0 0.00 0.02 0.02 79 1010.7
20260509015857 73 192 0.0 1.0 0.00 0.02 0.02 79 1010.5
20260509015355 73 193 0.0 0.0 0.00 0.02 0.02 79 1010.6
20260509014851 73 194 0.0 1.0 0.00 0.02 0.02 79 1010.6
20260509014348 73 187 1.0 1.0 0.00 0.02 0.02 79 1010.6
20260509013845 73 190 0.0 1.0 0.00 0.02 0.02 79 1010.4
20260509013342 73 193 0.0 0.0 0.00 0.02 0.02 79 1010.5
20260509012837 73 195 1.0 2.0 0.00 0.02 0.02 79 1010.3
20260509012334 73 196 0.0 2.0 0.00 0.02 0.02 79 1010.1
20260509011832 73 199 1.0 3.0 0.00 0.02 0.02 79 1010.0
20260509011329 73 196 1.0 3.0 0.00 0.02 0.02 79 1010.0
20260509010827 73 188 1.0 2.0 0.00 0.02 0.02 79 1009.8
20260509010324 73 199 0.0 2.0 0.00 0.02 0.02 78 1009.6
20260509005821 73 190 0.0 2.0 0.00 0.02 0.02 78 1009.6
20260509005319 73 214 0.0 1.0 0.00 0.02 0.02 77 1009.6
20260509004819 74 189 1.0 2.0 0.00 0.02 0.02 77 1009.6
20260509004310 74 194 1.0 3.0 0.00 0.02 0.02 77 1009.5
20260509003808 74 199 1.0 3.0 0.00 0.02 0.02 76 1009.6
20260509003306 74 190 2.0 3.0 0.00 0.02 0.02 76 1009.5
20260509002802 74 195 2.0 3.0 0.00 0.02 0.02 76 1009.7
20260509002300 74 201 4.0 4.0 0.00 0.02 0.02 75 1009.7
20260509001758 74 180 1.0 2.0 0.00 0.02 0.02 76 1009.7
20260509001253 74 199 2.0 6.0 0.00 0.02 0.02 76 1009.7
20260509000751 74 193 0.0 4.0 0.00 0.02 0.02 77 1009.9
20260509000248 74 189 3.0 4.0 0.00 0.02 0.02 76 1010.0
20260508235745 74 201 1.0 4.0 0.00 0.02 0.02 76 1009.9
20260508235242 75 201 1.0 2.0 0.00 0.02 0.02 75 1010.3
20260508234739 75 192 2.0 2.0 0.00 0.02 0.02 75 1010.1
20260508234235 75 192 1.0 3.0 0.00 0.02 0.02 75 1010.1
20260508233735 75 214 1.0 3.0 0.00 0.02 0.02 74 1010.0
20260508233232 75 216 2.0 6.0 0.00 0.02 0.02 74 1010.2
20260508232730 76 198 1.0 4.0 0.00 0.02 0.02 72 1010.2
20260508232226 77 175 1.0 3.0 0.00 0.02 0.02 70 1010.1
20260508231724 76 211 2.0 4.0 0.00 0.02 0.02 71 1010.1
20260508231220 75 206 1.0 2.0 0.00 0.02 0.02 72 1010.0
20260508230717 75 199 1.0 1.0 0.00 0.02 0.02 73 1010.0
20260508230213 75 232 2.0 3.0 0.00 0.02 0.02 73 1010.1
20260508225712 75 213 1.0 3.0 0.00 0.02 0.02 73 1010.0
20260508225208 74 173 0.0 2.0 0.00 0.02 0.02 74 1010.2
20260508224706 74 188 1.0 1.0 0.00 0.02 0.02 73 1010.3
20260508224203 75 228 2.0 3.0 0.00 0.02 0.02 73 1010.3
20260508223700 74 204 0.0 3.0 0.00 0.02 0.02 73 1010.4
20260508223157 73 196 0.0 3.0 0.00 0.02 0.02 74 1010.2
20260508222655 73 234 2.0 4.0 0.00 0.02 0.02 74 1010.6
20260508222152 73 206 1.0 2.0 0.00 0.02 0.02 75 1010.4
20260508221643 73 171 2.0 4.0 0.00 0.02 0.02 74 1010.5
20260508221138 73 190 4.0 4.0 0.00 0.02 0.02 73 1010.3
20260508220635 74 200 3.0 7.0 0.00 0.02 0.02 75 1010.6
20260508220132 74 224 3.0 7.0 0.00 0.02 0.02 75 1010.5
20260508215629 73 191 1.0 4.0 0.00 0.02 0.02 74 1010.3
20260508215125 72 204 1.0 3.0 0.00 0.02 0.02 77 1010.3
20260508214622 72 207 2.0 4.0 0.00 0.02 0.02 78 1010.1
20260508214120 72 203 2.0 4.0 0.00 0.02 0.02 78 1009.7
20260508213616 72 178 1.0 7.0 0.00 0.02 0.02 79 1008.7
20260508213112 71 312 4.0 8.0 0.00 0.02 0.02 79 1008.5
20260508212609 71 82 3.0 7.0 0.00 0.02 0.02 80 1009.1
20260508212106 71 188 2.0 8.0 0.00 0.02 0.02 79 1010.5
20260508211601 72 192 6.0 7.0 0.00 0.02 0.02 80 1011.7
20260508211057 72 237 3.0 6.0 0.05 0.02 0.02 84 1011.6
20260508210554 73 218 3.0 4.0 0.12 0.02 0.02 81 1011.9
20260508210051 75 173 1.0 3.0 0.00 0.00 0.00 75 1012.0
20260508205549 76 204 3.0 4.0 0.00 0.00 0.00 68 1011.9
20260508205044 77 215 4.0 6.0 0.00 0.00 0.00 68 1012.0
20260508204541 76 244 2.0 3.0 0.00 0.00 0.00 67 1011.9
20260508204037 77 220 5.0 9.0 0.00 0.00 0.00 65 1012.0
20260508203534 78 205 4.0 6.0 0.00 0.00 0.00 63 1012.1
20260508203029 78 179 3.0 4.0 0.00 0.00 0.00 64 1012.2
20260508202527 80 223 3.0 4.0 0.00 0.00 0.00 62 1011.9
20260508202024 81 223 5.0 7.0 0.00 0.00 0.00 60 1011.9
20260508201520 81 182 3.0 6.0 0.00 0.00 0.00 59 1011.6
20260508201017 82 201 3.0 6.0 0.00 0.00 0.00 60 1011.7
20260508200514 82 195 2.0 3.0 0.00 0.00 0.00 59 1011.7
20260508200010 81 210 2.0 7.0 0.00 0.00 0.00 59 1011.6
20260508195507 80 189 1.0 4.0 0.00 0.00 0.00 61 1012.0
20260508195003 82 219 2.0 4.0 0.00 0.00 0.00 59 1012.0
20260508194500 81 200 2.0 4.0 0.00 0.00 0.00 59 1012.0
20260508193957 81 173 2.0 7.0 0.00 0.00 0.00 60 1011.9
20260508193453 79 190 1.0 6.0 0.00 0.00 0.00 62 1012.0
20260508192950 79 231 3.0 7.0 0.00 0.00 0.00 61 1012.0
20260508192447 79 199 3.0 6.0 0.00 0.00 0.00 61 1012.0
20260508191943 79 200 3.0 6.0 0.00 0.00 0.00 60 1012.5
20260508191441 78 172 4.0 9.0 0.00 0.00 0.00 61 1012.3
20260508190937 78 194 3.0 6.0 0.00 0.00 0.00 61 1012.8
20260508190435 78 220 3.0 8.0 0.00 0.00 0.00 61 1012.7
20260508185931 78 185 2.0 8.0 0.00 0.00 0.00 62 1012.6
20260508185428 78 201 6.0 8.0 0.00 0.00 0.00 61 1012.8
20260508184926 79 201 5.0 7.0 0.00 0.00 0.00 61 1012.7
20260508184423 79 201 2.0 6.0 0.00 0.00 0.00 61 1012.7
20260508183919 80 262 3.0 7.0 0.00 0.00 0.00 58 1012.8
20260508183416 81 165 2.0 6.0 0.00 0.00 0.00 58 1012.9
20260508182911 81 201 4.0 6.0 0.00 0.00 0.00 58 1012.8
20260508182409 81 216 5.0 7.0 0.00 0.00 0.00 58 1013.0
20260508181904 81 209 1.0 3.0 0.00 0.00 0.00 60 1013.2
20260508181401 80 222 2.0 4.0 0.00 0.00 0.00 59 1013.2
20260508180858 80 171 1.0 3.0 0.00 0.00 0.00 60 1013.2
20260508180354 80 157 3.0 9.0 0.00 0.00 0.00 58 1013.2
20260508175845 79 174 2.0 4.0 0.00 0.00 0.00 59 1013.5
20260508175342 78 223 2.0 4.0 0.00 0.00 0.00 58 1013.2
20260508174840 78 210 2.0 6.0 0.00 0.00 0.00 58 1013.4
20260508174337 79 200 3.0 6.0 0.00 0.00 0.00 58 1013.7
20260508173833 79 227 2.0 4.0 0.00 0.00 0.00 59 1013.7
20260508173331 80 229 2.0 7.0 0.00 0.00 0.00 58 1013.7
20260508172826 78 181 1.0 3.0 0.00 0.00 0.00 60 1013.8
20260508172324 78 191 2.0 7.0 0.00 0.00 0.00 60 1013.8
20260508171820 77 193 5.0 7.0 0.00 0.00 0.00 59 1013.9
20260508171316 78 214 5.0 6.0 0.00 0.00 0.00 59 1014.0
20260508170813 76 188 1.0 7.0 0.00 0.00 0.00 62 1014.2
20260508170312 75 220 2.0 4.0 0.00 0.00 0.00 63 1014.3
20260508165808 75 155 2.0 6.0 0.00 0.00 0.00 64 1014.5
20260508165307 75 180 2.0 6.0 0.00 0.00 0.00 64 1014.6
20260508164801 75 205 2.0 6.0 0.00 0.00 0.00 64 1014.9
20260508164258 74 203 2.0 4.0 0.00 0.00 0.00 65 1014.9
20260508163756 73 205 3.0 8.0 0.00 0.00 0.00 65 1014.9
20260508163254 73 173 2.0 7.0 0.00 0.00 0.00 65 1015.1
20260508162749 72 178 2.0 6.0 0.00 0.00 0.00 67 1014.9
20260508162246 72 162 2.0 7.0 0.00 0.00 0.00 66 1015.2
20260508161743 72 188 5.0 7.0 0.00 0.00 0.00 67 1015.2
20260508161240 73 180 3.0 6.0 0.00 0.00 0.00 66 1015.1
20260508160738 72 180 4.0 8.0 0.00 0.00 0.00 67 1015.3
20260508160236 72 218 3.0 7.0 0.00 0.00 0.00 67 1015.3
20260508155726 72 164 1.0 6.0 0.00 0.00 0.00 66 1015.5
20260508155224 73 193 3.0 6.0 0.00 0.00 0.00 65 1015.4
20260508154720 73 232 2.0 4.0 0.00 0.00 0.00 67 1015.8
20260508154218 72 184 3.0 6.0 0.00 0.00 0.00 66 1015.7
20260508153714 72 180 1.0 3.0 0.00 0.00 0.00 67 1015.6
20260508153211 72 188 3.0 6.0 0.00 0.00 0.00 67 1015.6
20260508152708 72 187 1.0 4.0 0.00 0.00 0.00 67 1015.9
20260508152204 72 184 1.0 3.0 0.00 0.00 0.00 68 1015.7
20260508151700 71 180 1.0 4.0 0.00 0.00 0.00 67 1015.7
20260508151157 70 189 1.0 6.0 0.00 0.00 0.00 67 1015.7
20260508150654 70 171 2.0 7.0 0.00 0.00 0.00 67 1015.8
20260508150151 70 202 3.0 6.0 0.00 0.00 0.00 67 1015.7
20260508145646 70 215 1.0 6.0 0.00 0.00 0.00 68 1015.8
20260508145143 70 209 2.0 6.0 0.00 0.00 0.00 68 1015.7
20260508144641 71 189 5.0 7.0 0.00 0.00 0.00 66 1015.9
20260508144138 71 126 2.0 2.0 0.00 0.00 0.00 66 1015.8
20260508143635 71 113 1.0 4.0 0.00 0.00 0.00 66 1015.5
20260508143132 71 163 4.0 7.0 0.00 0.00 0.00 65 1015.7
20260508142628 71 185 2.0 4.0 0.00 0.00 0.00 66 1015.7
20260508142125 70 91 2.0 3.0 0.00 0.00 0.00 66 1015.8
20260508141622 70 194 3.0 4.0 0.00 0.00 0.00 67 1015.9
20260508141120 70 185 1.0 3.0 0.00 0.00 0.00 68 1016.1
20260508140617 70 139 2.0 6.0 0.00 0.00 0.00 68 1016.0
20260508140114 69 195 1.0 2.0 0.00 0.00 0.00 68 1016.1
20260508135608 69 198 1.0 7.0 0.00 0.00 0.00 68 1016.2
20260508135105 69 162 0.0 2.0 0.00 0.00 0.00 69 1016.2
20260508134602 69 188 1.0 3.0 0.00 0.00 0.00 69 1016.3
20260508134059 68 159 1.0 2.0 0.00 0.00 0.00 70 1016.2
20260508133555 68 162 1.0 3.0 0.00 0.00 0.00 70 1016.3
20260508133053 67 128 2.0 3.0 0.00 0.00 0.00 72 1016.3
20260508132550 67 193 1.0 2.0 0.00 0.00 0.00 73 1015.9
20260508132047 67 126 2.0 3.0 0.00 0.00 0.00 73 1016.1
20260508131543 67 178 1.0 3.0 0.00 0.00 0.00 73 1016.2
20260508131040 67 191 0.0 0.0 0.00 0.00 0.00 74 1016.2
20260508130537 66 171 1.0 2.0 0.00 0.00 0.00 76 1016.3
20260508130033 65 166 3.0 3.0 0.00 0.00 0.00 77 1016.2
20260508125529 64 167 2.0 2.0 0.00 0.00 0.00 78 1016.2
20260508125027 64 158 1.0 1.0 0.00 0.00 0.00 81 1016.0
20260508124524 63 166 1.0 2.0 0.00 0.00 0.00 82 1016.1
20260508124021 62 168 1.0 2.0 0.00 0.00 0.00 84 1015.8
20260508123520 62 189 0.0 3.0 0.00 0.00 0.00 85 1015.9
20260508123016 61 185 0.0 2.0 0.00 0.00 0.00 87 1016.0
20260508122513 60 184 0.0 2.0 0.00 0.00 0.00 89 1015.9
20260508122010 59 174 1.0 1.0 0.00 0.00 0.00 90 1015.9
20260508121508 60 184 1.0 1.0 0.00 0.00 0.00 90 1016.2
20260508121006 60 193 0.0 1.0 0.00 0.00 0.00 89 1016.3
20260508120503 60 181 0.0 1.0 0.00 0.00 0.00 90 1016.2
20260508120001 60 186 0.0 1.0 0.00 0.00 0.00 90 1016.2
20260508115459 60 169 1.0 1.0 0.00 0.00 0.00 90 1015.9
20260508114955 60 186 0.0 0.0 0.00 0.00 0.00 89 1016.6
20260508114452 60 195 0.0 0.0 0.00 0.00 0.00 90 1016.5
20260508113948 60 184 0.0 1.0 0.00 0.00 0.00 90 1016.4
20260508113446 59 215 2.0 2.0 0.00 0.00 0.00 92 1016.7
20260508112943 59 346 3.0 3.0 0.00 0.00 0.00 92 1016.7
20260508112440 59 102 3.0 3.0 0.00 0.00 0.00 93 1016.6
20260508111936 58 334 1.0 2.0 0.00 0.00 0.00 92 1016.9
20260508111433 59 206 1.0 2.0 0.00 0.00 0.00 92 1016.6
20260508110931 58 198 1.0 1.0 0.00 0.00 0.00 92 1016.3
20260508110429 58 195 0.0 0.0 0.00 0.00 0.00 92 1015.9
20260508105928 58 191 0.0 1.0 0.00 0.00 0.00 92 1015.8
20260508105425 58 202 1.0 2.0 0.00 0.00 0.00 92 1015.5
20260508104922 58 193 0.0 0.0 0.00 0.00 0.00 92 1015.6
20260508104419 58 187 0.0 0.0 0.00 0.00 0.00 91 1015.5
20260508103916 58 187 0.0 0.0 0.00 0.00 0.00 91 1015.5
20260508103413 58 188 0.0 0.0 0.00 0.00 0.00 90 1015.6
20260508102910 59 188 0.0 0.0 0.00 0.00 0.00 90 1015.3
20260508102409 59 191 0.0 1.0 0.00 0.00 0.00 90 1015.3
20260508101905 59 181 0.0 0.0 0.00 0.00 0.00 90 1015.4